Canyon Lake Weather Center

Moon Phase Calendar



Canyon Lake Water Level
Online Cameras

 


      

Current Conditions in Canyon Lake
9/21/2021 5:19:34 PM

87°F
Feels Like 90
Clouds
Humidity
50%
Pressure
30.09"
Wind
4 mph (N)
Dew Point
67°F
UV Index
3/10 (Moderate)
Visibility
6 mi

Hourly Forecast

Date & Time Tue, Sep 21
5:00 PM
Tue, Sep 21
6:00 PM
Tue, Sep 21
7:00 PM
Tue, Sep 21
8:00 PM
Tue, Sep 21
9:00 PM
Tue, Sep 21
10:00 PM
Tue, Sep 21
11:00 PM
Wed, Sep 22
12:00 AM
Wed, Sep 22
1:00 AM
Wed, Sep 22
2:00 AM
Wed, Sep 22
3:00 AM
Wed, Sep 22
4:00 AM
Wed, Sep 22
5:00 AM
Wed, Sep 22
6:00 AM
Wed, Sep 22
7:00 AM
Wed, Sep 22
8:00 AM
Wed, Sep 22
9:00 AM
Wed, Sep 22
10:00 AM
Wed, Sep 22
11:00 AM
Wed, Sep 22
12:00 PM
Wed, Sep 22
1:00 PM
Wed, Sep 22
2:00 PM
Wed, Sep 22
3:00 PM
Wed, Sep 22
4:00 PM
Wed, Sep 22
5:00 PM
Wed, Sep 22
6:00 PM
Wed, Sep 22
7:00 PM
Wed, Sep 22
8:00 PM
Wed, Sep 22
9:00 PM
Wed, Sep 22
10:00 PM
Wed, Sep 22
11:00 PM
Thu, Sep 23
12:00 AM
Thu, Sep 23
1:00 AM
Thu, Sep 23
2:00 AM
Thu, Sep 23
3:00 AM
Thu, Sep 23
4:00 AM
Thu, Sep 23
5:00 AM
Thu, Sep 23
6:00 AM
Thu, Sep 23
7:00 AM
Thu, Sep 23
8:00 AM
Thu, Sep 23
9:00 AM
Thu, Sep 23
10:00 AM
Thu, Sep 23
11:00 AM
Thu, Sep 23
12:00 PM
Thu, Sep 23
1:00 PM
Thu, Sep 23
2:00 PM
Thu, Sep 23
3:00 PM
Thu, Sep 23
4:00 PM
Condition
Rain

Clouds

Clouds

Clouds

Clouds

Clouds

Clouds

Clouds

Clouds

Clouds

Clouds

Clouds

Clouds

Clouds

Clouds

Clouds

Clouds

Clouds

Clouds

Clouds

Clouds

Clouds

Clouds

Clouds

Clouds

Clouds

Clouds

Clouds

Clouds

Clear

Clouds

Clouds

Clouds

Clear

Clear

Clear

Clear

Clear

Clear

Clear

Clear

Clouds

Clouds

Clouds

Clouds

Clouds

Clouds

Clouds
Temperature 87°F87°F85°F83°F82°F80°F78°F77°F76°F75°F73°F72°F71°F70°F69°F67°F69°F72°F76°F78°F80°F82°F82°F83°F82°F81°F76°F71°F69°F68°F67°F66°F66°F64°F63°F62°F62°F61°F61°F63°F69°F74°F78°F81°F83°F84°F85°F86°F
Feels Like 90°F89°F87°F84°F82°F80°F77°F76°F75°F73°F72°F70°F69°F68°F67°F66°F67°F71°F74°F77°F80°F79°F80°F80°F80°F79°F75°F69°F68°F66°F65°F64°F63°F62°F61°F60°F59°F58°F58°F61°F67°F72°F77°F79°F80°F81°F82°F83°F
Cloudiness 66%67%70%86%93%100%100%100%98%100%100%100%99%99%99%99%99%85%75%73%78%90%89%93%95%92%86%24%12%9%12%12%12%10%8%7%6%6%7%8%9%16%17%22%24%50%45%33%
Visibility 6 mi6 mi6 mi6 mi6 mi6 mi6 mi6 mi6 mi6 mi6 mi6 mi6 mi6 mi6 mi6 mi6 mi6 mi6 mi6 mi6 mi6 mi6 mi6 mi6 mi6 mi6 mi6 mi6 mi6 mi6 mi6 mi6 mi6 mi6 mi6 mi6 mi6 mi6 mi6 mi6 mi6 mi6 mi6 mi6 mi6 mi6 mi6 mi
Precipitation 97%79%79%9%5%5%5%5%5%0%0%0%0%0%0%0%0%0%0%0%0%0%0%0%0%0%0%0%0%0%0%0%0%0%0%0%0%0%0%0%0%0%0%0%0%0%0%0%
Humidity 50%51%53%53%42%33%29%28%28%29%30%31%31%31%32%35%35%29%25%23%21%19%18%18%18%20%28%28%29%29%30%29%29%29%31%33%33%33%34%39%31%29%25%22%19%18%18%18%
Dew Point 67°F66°F66°F64°F57°F48°F43°F41°F40°F40°F40°F40°F39°F38°F37°F38°F40°F38°F37°F36°F36°F35°F35°F35°F35°F36°F40°F36°F35°F35°F34°F33°F32°F32°F31°F32°F32°F32°F32°F37°F37°F39°F40°F38°F37°F36°F37°F37°F
Pressure 30.09"30.09"30.09"30.09"30.12"30.15"30.15"30.15"30.18"30.18"30.21"30.21"30.21"30.24"30.24"30.27"30.27"30.27"30.27"30.27"30.24"30.21"30.15"30.12"30.12"30.09"30.12"30.12"30.12"30.15"30.15"30.12"30.12"30.12"30.12"30.09"30.09"30.09"30.12"30.12"30.12"30.12"30.12"30.12"30.09"30.06"30"29.97"
Wind Speed 19.1 mph14.2 mph11.7 mph11.9 mph15.5 mph16.7 mph18.8 mph19.3 mph18.8 mph18.1 mph16.2 mph16.7 mph15.8 mph16.1 mph15.1 mph13.9 mph14.9 mph17.5 mph17.6 mph16.9 mph15.6 mph14.2 mph13.3 mph12.2 mph11.1 mph9.6 mph5.5 mph4.9 mph4.2 mph3.5 mph2.8 mph2.5 mph2.8 mph3.4 mph2.6 mph1.9 mph2 mph2.4 mph2.7 mph2.1 mph2.6 mph4.9 mph6.4 mph6.5 mph6.1 mph6.2 mph6.5 mph7.2 mph
Wind
Direction
22°
NNE
31°
NNE
37°
NE
19°
NNE
13°
NNE
16°
NNE
15°
NNE
20°
NNE
23°
NNE
24°
NNE
27°
NNE
31°
NNE
29°
NNE
28°
NNE
25°
NNE
22°
NNE
24°
NNE
32°
NNE
35°
NE
35°
NE
33°
NNE
30°
NNE
28°
NNE
26°
NNE
24°
NNE
22°
NNE

N
354°
N

N
17°
NNE
30°
NNE
27°
NNE
51°
NE
86°
E
81°
E
44°
NE
42°
NE
59°
ENE
71°
ENE
102°
ESE
155°
SSE
171°
S
175°
S
171°
S
159°
SSE
146°
SE
136°
SE
127°
SE

Daily Forecast

Date High Low Precip. Humidity
Today
Sep 21

Rain
93 °F
75 °F
99%
45%
Wednesday
Sep 22

Clouds
83 °F
67 °F
5%
21%
Thursday
Sep 23

Clouds
86 °F
61 °F
0%
19%
Friday
Sep 24

Clouds
85 °F
61 °F
0%
30%
Saturday
Sep 25

Clouds
86 °F
62 °F
0%
36%
Sunday
Sep 26

Clouds
89 °F
63 °F
0%
40%
Monday
Sep 27

Rain
91 °F
69 °F
22%
54%
Tuesday
Sep 28

Rain
88 °F
74 °F
100%
57%
Wednesday
Sep 29

Rain
95 °F
74 °F
99%
54%
Thursday
Sep 30

Rain
96 °F
75 °F
28%
47%
Friday
Oct 1

Rain
92 °F
72 °F
80%
50%
Saturday
Oct 2

Rain
91 °F
70 °F
78%
43%
Sunday
Oct 3

Clouds
91 °F
72 °F
0%
54%
Monday
Oct 4

Clouds
90 °F
72 °F
2%
49%
Tuesday
Oct 5

Clear
89 °F
68 °F
0%
43%
Wednesday
Oct 6

Clear
89 °F
68 °F
0%
38%

Temperature 8-14 Day Outlook



Precipitation 8-14 Day Outlook




Quick Links
Canyon Lake News
Canyon Lake Photos
Canyon Lake Videos




About Us
Contact Us
Site Map
Search Site
Advertise With Us
   
Canyon-TX.LakesOnline.com
THE CANYON LAKE WEBSITE

Copyright 2021, Lakes Online
Privacy    |    Legal